FW4331 Weather Reports


time (UTC)temp
C
wind
direction
speed
KPH
gust
KPH
rain 1hr
cm
rain 24hr
cm
rain mn
cm
humidity
%
barometer
mb
20260504214524 24 159 9.7 22.5 0.00 0.00 0.00 24 1008.2
20260504213020 24 246 9.7 25.7 0.00 0.00 0.00 24 1008.0
20260504211517 23 228 8.0 24.1 0.00 0.00 0.00 24 1008.1
20260504210016 24 222 14.5 24.1 0.00 0.00 0.00 22 1008.1
20260504204516 25 200 12.9 27.4 0.00 0.00 0.00 21 1008.1
20260504203012 24 217 8.0 19.3 0.00 0.00 0.00 22 1008.0
20260504201509 25 186 8.0 20.9 0.00 0.00 0.00 20 1008.2
20260504200007 24 244 9.7 22.5 0.00 0.00 0.00 21 1008.3
20260504194502 25 266 8.0 19.3 0.00 0.00 0.00 21 1008.6
20260504193113 24 253 9.7 22.5 0.00 0.00 0.00 21 1009.0
20260504191555 25 240 8.0 19.3 0.00 0.00 0.00 20 1009.0
20260504190056 25 255 4.8 16.1 0.00 0.00 0.00 23 1009.3
20260504184546 24 205 4.8 22.5 0.00 0.00 0.00 21 1009.6
20260504183054 23 291 8.0 17.7 0.00 0.00 0.00 22 1009.9
20260504181538 23 165 4.8 29.0 0.00 0.00 0.00 21 1010.1
20260504180054 23 226 8.0 22.5 0.00 0.00 0.00 22 1010.4
20260504174533 23 302 8.0 19.3 0.00 0.00 0.00 23 1010.6
20260504173027 22 192 11.3 20.9 0.00 0.00 0.00 22 1010.9
20260504171524 22 150 6.4 24.1 0.00 0.00 0.00 23 1011.0
20260504081500 7 153 0.0 0.0 0.00 0.00 0.00 57 1014.0
20260504044533 6 297 0.0 0.0 0.00 0.00 0.00 61 1014.4
20260504043030 6 297 0.0 0.0 0.00 0.00 0.00 60 1014.4
20260504041517 6 297 0.0 0.0 0.00 0.00 0.00 57 1014.3
20260504040018 6 297 0.0 0.0 0.00 0.00 0.00 59 1014.2
20260504034511 6 297 0.0 0.0 0.00 0.00 0.00 60 1014.3
20260504033009 7 297 0.0 0.0 0.00 0.00 0.00 60 1014.6
20260504031507 7 297 0.0 0.0 0.00 0.00 0.00 59 1014.3
20260504030005 7 257 0.0 0.0 0.00 0.00 0.00 58 1014.3
20260504024503 7 257 0.0 0.0 0.00 0.00 0.00 56 1014.2
20260504023100 7 257 0.0 0.0 0.00 0.00 0.00 57 1014.1
20260504021601 8 257 0.0 0.0 0.00 0.00 0.00 56 1014.1
20260504020107 8 257 0.0 0.0 0.00 0.00 0.00 52 1014.0
20260504014557 8 257 0.0 0.0 0.00 0.00 0.00 44 1013.7
20260504013155 9 257 0.0 0.0 0.00 0.00 0.00 41 1013.7
20260504011548 10 257 0.0 0.0 0.00 0.00 0.00 40 1013.4
20260504010046 10 257 0.0 0.0 0.00 0.00 0.00 40 1013.3
20260504004546 11 257 0.0 0.0 0.00 0.00 0.00 37 1013.3
20260504003046 12 257 0.0 0.0 0.00 0.00 0.00 32 1013.3
20260504001540 12 256 0.0 0.0 0.00 0.00 0.00 32 1013.3
20260504000045 13 256 0.0 0.0 0.00 0.00 0.00 28 1013.2
20260503234536 14 256 0.0 0.0 0.00 0.00 0.00 24 1012.9
20260503233035 15 287 0.0 0.0 0.00 0.00 0.00 21 1012.9
20260503231533 15 272 0.0 4.8 0.00 0.00 0.00 20 1012.9
20260503230032 16 226 0.0 12.9 0.00 0.00 0.00 19 1012.9
20260503224530 16 249 0.0 4.8 0.00 0.00 0.00 17 1012.7
20260503223026 17 225 0.0 4.8 0.00 0.00 0.00 16 1012.9
20260503221525 17 300 1.6 12.9 0.00 0.00 0.00 16 1012.9
20260503220023 17 249 0.0 8.0 0.00 0.00 0.00 14 1013.1